This demonstration page uses our WeatherBlox Daily Observations layout. Learn more.

Left ArrowRight Arrow

Hourly Observations for December 11, 2015

Temp ( °F °C ) Dew Point ( °F °C ) Humidity (%) Winds ( mph kmh ) Pressure ( in mb ) Visibility ( mi km ) Precip ( " mm )
12:53 am 00:53 Mostly Clear 49 9.4 47 8.3 93 93 Calm 29.98 1015 7 11 0.00 0.00
1:53 am 01:53 Clear with Mist and Fog 49 9.4 47 8.3 93 93 Calm 29.97 1015 6 10 0.00 0.00
2:48 am 02:48 Cloudy with Mist and Fog 48 9 46 8 94 94 Calm 30.03 1017 3 4 0.00 0.00
2:53 am 02:53 Cloudy with Mist and Fog 48 8.9 46 7.8 93 93 Calm 29.98 1015 4 6 0.00 0.00
3:30 am 03:30 Cloudy with Mist and Fog 50 10 48 9 94 94 Calm 30.03 1017 3 5 0.00 0.00
3:41 am 03:41 Cloudy with Mist and Fog 51 10.6 49 9.4 92 92 Calm 30.03 1017 2 3 0.00 0.00
3:49 am 03:49 Cloudy with Mist and Fog 52 11 50 10 94 94 Calm 30.03 1017 1 2 0.00 0.00
3:53 am 03:53 Cloudy with Mist and Fog 51 10.6 50 10 96 96 Calm 29.99 1016 1 1 0.00 0.00
4:17 am 04:17 Cloudy with Mist and Fog 56 13.3 54 12.2 93 93 SSW 6 9 30.00 1016 1 2 0.00 0.00
4:40 am 04:40 Cloudy with Mist and Fog 57 14 55 13 94 94 SW 5 7 30.00 1016 3 4 0.00 0.00
4:53 am 04:53 Cloudy with Mist and Fog 57 13.9 56 13.3 96 96 SW 6 9 29.99 1016 3 4 0.00 0.00
5:04 am 05:04 Cloudy with Mist and Fog 57 14 55 13 94 94 SSW 5 7 30.00 1016 1 2 0.00 0.00
5:53 am 05:53 Cloudy with Mist and Fog 58 14.4 57 13.9 97 97 SW 3 6 30.00 1016 2 2 0.00 0.00
6:53 am 06:53 Cloudy with Mist and Fog 58 14.4 57 13.9 97 97 SSW 6 9 30.01 1016 1 2 0.00 0.00
7:13 am 07:13 Cloudy with Mist and Fog 58 14.4 57 13.9 97 97 SSW 5 7 30.03 1017 3 4 0.00 0.00
7:22 am 07:22 Cloudy with Mist and Fog 59 15 57 13.9 93 93 SSW 6 9 30.03 1017 3 4 0.00 0.00
7:31 am 07:31 Cloudy with Mist and Fog 59 15 58 14.4 96 96 SSW 5 7 30.03 1017 3 5 0.00 0.00
7:53 am 07:53 Cloudy with Mist and Fog 59 15 58 14.4 96 96 SW 5 7 30.03 1017 3 5 0.00 0.00
8:53 am 08:53 Cloudy with Mist and Fog 60 15.6 59 15 96 96 WSW 3 6 30.05 1018 3 5 0.00 0.00
9:53 am 09:53 Cloudy 63 17.2 60 15.6 90 90 SW 5 7 30.06 1018 7 11 0.00 0.00
10:53 am 10:53 Cloudy 66 18.9 61 16.1 84 84 SW 8 13 30.08 1019 10 16 0.00 0.00
11:01 am 11:01 Cloudy 66 18.9 61 16.1 84 84 SW 6 9 30.09 1019 10 16 0.00 0.00
11:45 am 11:45 Mostly Cloudy 69 20.6 61 16.1 76 76 SW 7 11 30.09 1019 10 16 0.00 0.00
11:53 am 11:53 Mostly Cloudy 69 20.6 61 16.1 76 76 SSW 10 17 30.08 1019 10 16 0.00 0.00
12:53 pm 12:53 Cloudy with Light Rain 70 21.1 60 15.6 71 71 SW 8 13 30.06 1018 10 16 0.00 0.03
1:53 pm 13:53 Cloudy 70 21.1 61 16.1 73 73 SSW 9 15 30.05 1018 10 16 0.00 0.03
2:53 pm 14:53 Cloudy 72 22.2 60 15.6 66 66 SW 8 13 30.03 1017 10 16 0.00 0.03
3:53 pm 15:53 Sunny 72 22.2 60 15.6 66 66 SSW 6 9 30.03 1017 10 16 0.00 0.00
4:53 pm 16:53 Sunny 71 21.7 59 15 66 66 S 6 9 30.04 1017 10 16 0.00 0.00
5:53 pm 17:53 Mostly Clear 69 20.6 60 15.6 73 73 S 7 11 30.06 1018 10 16 0.00 0.00
6:53 pm 18:53 Clear 66 18.9 60 15.6 81 81 S 5 7 30.07 1018 10 16 0.00 0.00
7:53 pm 19:53 Clear 62 16.7 58 14.4 86 86 Calm 30.09 1019 10 16 0.00 0.00
8:53 pm 20:53 Clear 59 15 57 13.9 93 93 Calm 30.11 1020 8 13 0.00 0.00
9:53 pm 21:53 Clear 56 13.3 55 12.8 97 97 Calm 30.12 1020 8 13 0.00 0.00
10:53 pm 22:53 Clear 56 13.3 55 12.8 97 97 Calm 30.13 1020 10 16 0.00 0.00
11:00 pm 23:00 Mostly Cloudy 55 13 55 13 100 100 Calm 30.15 1021 4 6 0.00 0.00
11:09 pm 23:09 Mostly Cloudy 57 13.9 54 12.2 90 90 Calm 30.15 1021 8 13 0.00 0.00
11:53 pm 23:53 Clear 57 13.9 54 12.2 90 90 Calm 30.14 1021 8 13 0.00 0.00

Powered by AerisWeather